| time (UTC) | temp F | wind direction | speed knots | gust knots | rain 1hr in | rain 24hr in | rain mn in | humidity % | barometer mb |
| 20260905064502 | 67 | 351 | 2.6 | 7.0 | 0.00 | 0.00 | 0.00 | 84 | 1006.6 |
| 20260905063042 | 68 | 8 | 1.7 | 7.0 | 0.00 | 0.00 | 0.00 | 83 | 1006.9 |
| 20260905061511 | 68 | 29 | 1.7 | 7.0 | 0.00 | 0.00 | 0.00 | 81 | 1006.9 |
| 20260905060053 | 68 | 335 | 0.9 | 5.2 | 0.00 | 0.00 | 0.00 | 82 | 1006.9 |
| 20260905054539 | 68 | 357 | 0.9 | 5.2 | 0.00 | 0.00 | 0.00 | 82 | 1006.9 |
| 20260905053140 | 68 | 9 | 0.9 | 5.2 | 0.00 | 0.00 | 0.00 | 82 | 1006.9 |
| 20260905051519 | 68 | 18 | 0.9 | 4.3 | 0.00 | 0.00 | 0.00 | 82 | 1006.8 |
| 20260905050051 | 68 | 5 | 0.0 | 3.5 | 0.00 | 0.00 | 0.00 | 82 | 1007.2 |
| 20260905044522 | 68 | 341 | 0.9 | 3.5 | 0.00 | 0.00 | 0.00 | 82 | 1007.1 |
| 20260905043100 | 68 | 341 | 0.0 | 4.3 | 0.00 | 0.00 | 0.00 | 83 | 1007.1 |
| 20260905041533 | 68 | 337 | 0.0 | 3.5 | 0.00 | 0.00 | 0.00 | 85 | 1007.3 |
| 20260905040110 | 68 | 336 | 0.9 | 3.5 | 0.00 | 0.00 | 0.00 | 87 | 1007.1 |
| 20260905034542 | 68 | 333 | 0.0 | 0.9 | 0.00 | 0.00 | 0.00 | 88 | 1007.2 |
| 20260905030033 | 70 | 166 | 0.0 | 0.0 | 0.00 | 0.00 | 0.00 | 92 | 1006.7 |
| 20260905024510 | 70 | 164 | 0.0 | 0.0 | 0.00 | 0.00 | 0.00 | 92 | 1006.6 |
| 20260905023041 | 70 | 164 | 0.0 | 0.0 | 0.00 | 0.00 | 0.00 | 92 | 1006.7 |
| 20260905021506 | 70 | 179 | 0.0 | 0.0 | 0.00 | 0.00 | 0.00 | 92 | 1006.6 |
| 20260905020036 | 70 | 179 | 0.0 | 0.0 | 0.00 | 0.00 | 0.00 | 92 | 1006.9 |
| 20260905014501 | 70 | 179 | 0.0 | 0.0 | 0.00 | 0.00 | 0.00 | 91 | 1007.1 |
| 20260905013047 | 70 | 179 | 0.0 | 0.0 | 0.00 | 0.00 | 0.00 | 91 | 1007.2 |
| 20260905011515 | 71 | 179 | 0.0 | 0.0 | 0.00 | 0.00 | 0.00 | 90 | 1007.3 |
| 20260905004533 | 71 | 179 | 0.0 | 5.2 | 0.00 | 0.00 | 0.00 | 91 | 1007.4 |
| 20260905003104 | 72 | 146 | 0.9 | 2.6 | 0.00 | 0.00 | 0.00 | 91 | 1007.1 |
| 20260905001535 | 72 | 134 | 1.7 | 5.2 | 0.00 | 0.00 | 0.00 | 91 | 1007.0 |
| 20260905000000 | 71 | 173 | 0.0 | 0.0 | 0.00 | 0.00 | 0.00 | 90 | 1006.6 |
| 20260904234531 | 72 | 173 | 0.0 | 0.9 | 0.00 | 0.00 | 0.00 | 90 | 1006.6 |
| 20260904224520 | 74 | 143 | 2.6 | 6.1 | 0.00 | 0.00 | 0.00 | 87 | 1006.6 |
| 20260904223103 | 75 | 119 | 1.7 | 5.2 | 0.00 | 0.00 | 0.00 | 87 | 1006.4 |
| 20260904221530 | 76 | 176 | 0.0 | 2.6 | 0.00 | 0.00 | 0.00 | 83 | 1006.1 |
| 20260904220113 | 78 | 174 | 0.9 | 3.5 | 0.00 | 0.00 | 0.00 | 81 | 1006.2 |
| 20260904214542 | 78 | 173 | 0.9 | 4.3 | 0.00 | 0.00 | 0.00 | 82 | 1006.0 |
| 20260904213004 | 78 | 189 | 0.9 | 5.2 | 0.00 | 0.00 | 0.00 | 82 | 1005.9 |
| 20260904211534 | 78 | 133 | 0.9 | 4.3 | 0.00 | 0.00 | 0.00 | 81 | 1006.1 |
| 20260904210003 | 78 | 196 | 2.6 | 5.2 | 0.00 | 0.00 | 0.00 | 80 | 1006.2 |
| 20260904204539 | 78 | 168 | 0.0 | 5.2 | 0.00 | 0.00 | 0.00 | 80 | 1006.4 |
| 20260904194601 | 80 | 156 | 1.7 | 5.2 | 0.00 | 0.00 | 0.00 | 74 | 1006.2 |
| 20260904193115 | 81 | 189 | 0.9 | 6.1 | 0.00 | 0.00 | 0.00 | 74 | 1006.4 |
| 20260904191532 | 81 | 164 | 1.7 | 5.2 | 0.00 | 0.00 | 0.00 | 71 | 1006.4 |
| 20260904190115 | 82 | 190 | 1.7 | 4.3 | 0.00 | 0.00 | 0.00 | 72 | 1006.3 |
| 20260904184529 | 82 | 124 | 2.6 | 6.1 | 0.00 | 0.00 | 0.00 | 73 | 1006.2 |
| 20260904183102 | 82 | 202 | 4.3 | 7.0 | 0.00 | 0.00 | 0.00 | 73 | 1006.3 |
| 20260904181523 | 81 | 124 | 1.7 | 6.1 | 0.00 | 0.00 | 0.00 | 75 | 1006.2 |
| 20260904180100 | 81 | 191 | 0.9 | 7.0 | 0.00 | 0.00 | 0.00 | 78 | 1006.5 |
| 20260904174525 | 79 | 187 | 0.0 | 6.1 | 0.00 | 0.00 | 0.00 | 79 | 1006.7 |
| 20260904173126 | 80 | 146 | 0.9 | 5.2 | 0.00 | 0.00 | 0.00 | 79 | 1006.8 |
| 20260904171538 | 78 | 181 | 1.7 | 7.0 | 0.00 | 0.00 | 0.00 | 81 | 1006.8 |
| 20260904170113 | 78 | 89 | 4.3 | 7.0 | 0.00 | 0.00 | 0.00 | 80 | 1006.8 |
| 20260904164527 | 77 | 114 | 4.3 | 7.0 | 0.00 | 0.00 | 0.00 | 82 | 1006.9 |
| 20260904163053 | 77 | 105 | 2.6 | 8.7 | 0.00 | 0.00 | 0.00 | 86 | 1006.9 |
| 20260904161519 | 76 | 156 | 3.5 | 7.8 | 0.00 | 0.00 | 0.00 | 86 | 1007.1 |
| 20260904160047 | 76 | 166 | 4.3 | 7.8 | 0.00 | 0.00 | 0.00 | 87 | 1007.0 |
| 20260904154509 | 77 | 78 | 1.7 | 7.0 | 0.00 | 0.00 | 0.00 | 86 | 1007.2 |
| 20260904153046 | 76 | 76 | 2.6 | 7.8 | 0.00 | 0.00 | 0.00 | 85 | 1007.2 |
| 20260904151510 | 81 | 14 | 0.9 | 6.1 | 0.00 | 0.00 | 0.00 | 72 | 1007.2 |
| 20260904144510 | 80 | 359 | 1.7 | 6.1 | 0.00 | 0.00 | 0.00 | 75 | 1007.5 |
| 20260904143038 | 79 | 273 | 0.0 | 5.2 | 0.00 | 0.00 | 0.00 | 83 | 1007.5 |
| 20260904141617 | 77 | 273 | 1.7 | 5.2 | 0.00 | 0.00 | 0.00 | 86 | 1007.6 |
| 20260904140039 | 76 | 241 | 2.6 | 7.0 | 0.00 | 0.00 | 0.00 | 88 | 1007.6 |
| 20260904134505 | 76 | 249 | 0.9 | 7.8 | 0.00 | 0.00 | 0.00 | 88 | 1007.7 |
| 20260904133039 | 76 | 274 | 2.6 | 7.8 | 0.00 | 0.02 | 0.00 | 88 | 1007.7 |
| 20260904131610 | 75 | 267 | 2.6 | 7.0 | 0.00 | 0.02 | 0.00 | 89 | 1007.8 |
| 20260904130042 | 74 | 277 | 2.6 | 6.1 | 0.00 | 0.02 | 0.00 | 91 | 1007.9 |
| 20260904124554 | 73 | 255 | 2.6 | 6.1 | 0.00 | 0.02 | 0.00 | 91 | 1007.9 |
| 20260904123012 | 73 | 263 | 3.5 | 7.0 | 0.00 | 0.13 | 0.00 | 92 | 1008.1 |
| 20260904121547 | 72 | 262 | 1.7 | 7.8 | 0.00 | 0.13 | 0.00 | 94 | 1008.1 |
| 20260904120013 | 72 | 266 | 2.6 | 7.0 | 0.00 | 0.13 | 0.00 | 95 | 1008.1 |
| 20260904114554 | 71 | 270 | 2.6 | 6.1 | 0.00 | 0.13 | 0.00 | 95 | 1008.2 |
| 20260904113022 | 71 | 248 | 0.9 | 7.8 | 0.00 | 0.17 | 0.00 | 95 | 1008.3 |
| 20260904111611 | 71 | 258 | 0.9 | 7.8 | 0.00 | 0.17 | 0.00 | 95 | 1008.2 |
| 20260904110036 | 71 | 264 | 0.9 | 3.5 | 0.00 | 0.17 | 0.00 | 95 | 1008.2 |
| 20260904104611 | 71 | 264 | 0.0 | 2.6 | 0.00 | 0.17 | 0.00 | 95 | 1008.2 |
| 20260904103031 | 71 | 264 | 0.9 | 2.6 | 0.00 | 0.65 | 0.00 | 95 | 1007.9 |
| 20260904101609 | 71 | 264 | 0.0 | 0.0 | 0.00 | 0.65 | 0.00 | 95 | 1007.8 |
| 20260904100043 | 71 | 264 | 0.0 | 0.0 | 0.00 | 0.65 | 0.00 | 95 | 1007.7 |
| 20260904094531 | 71 | 264 | 0.0 | 0.0 | 0.00 | 0.65 | 0.00 | 94 | 1007.5 |
| 20260904090007 | 71 | 264 | 0.0 | 3.5 | 0.00 | 0.87 | 0.00 | 94 | 1007.8 |
| 20260904084543 | 71 | 264 | 1.7 | 5.2 | 0.00 | 0.87 | 0.00 | 94 | 1007.8 |
| 20260904083104 | 71 | 275 | 2.6 | 6.1 | 0.00 | 0.88 | 0.00 | 94 | 1007.7 |
| 20260904081537 | 70 | 279 | 0.9 | 2.6 | 0.00 | 0.88 | 0.00 | 94 | 1007.7 |
| 20260904080111 | 71 | 279 | 0.0 | 0.0 | 0.00 | 0.88 | 0.00 | 94 | 1007.6 |
| 20260904074527 | 71 | 279 | 0.0 | 0.0 | 0.00 | 0.88 | 0.00 | 94 | 1007.7 |
| 20260904073106 | 71 | 279 | 0.0 | 0.0 | 0.00 | 0.88 | 0.00 | 94 | 1007.6 |
| 20260904071527 | 71 | 279 | 0.0 | 1.7 | 0.00 | 0.88 | 0.00 | 94 | 1008.2 |
| 20260904070105 | 71 | 279 | 0.0 | 1.7 | 0.00 | 0.88 | 0.00 | 94 | 1008.2 |